Find Zi Yuan 1-02B

NORAD ID: 32062 Int'l Des: 2007-042 Owner: ZZWYZ/INPE Country: CN operational
LEOCIRCULARRETROGRADESSO

实时位置

正在加载3D地球...

关于 Zi Yuan 1-02B

正在加载描述...

即将过境

Passes for default location (London). Set your location on the main map for personalized predictions.

高度历史

Loading altitude history...

两行轨道根数

1 32062U 07042A 26132.30359340 .00000154 00000-0 60332-4 0 9995
2 32062 98.3907 77.5838 0032282 83.0277 71.7023 14.41455967979510
Epoch: May 12, 2026 • Age: 5 hours

当前状态

高度 744.7 km
速度 7.50 km/s
星下点 77.46°N, 111.64°W
发射日期 Sep 19, 2007
运行时间 18.6 years
类型 other

技术详情

分类 Payload
质量 1450.00 kg
干质量 1400.00 kg
总质量 1450.00 kg
长度 1.80 m
直径 2.00 m
跨度 9.00 m
形状 Box + Pan
制造商 CAST/INPE
平台类型 ZY
阶段状态 In Orbit
所有者/国家 ZZWYZ/INPE/CN

Most Searched